Cairo, IL

8:24 AM CST on December 10, 2019 (GMT -0600)
Cairo Regional

Weather History for KCIR - October, 2019

Change the Weather History Date:

Thursday, October 3, 2019

  Actual Average Record
Temperature  
Mean Temperature 76 °F -  
Max Temperature 88 °F 75 °F 90 °F (1954)
Min Temperature 63 °F 53 °F 37 °F (2004)
Cooling Degree Days 10    
Growing Degree Days 26 (Base 50)    
Moisture  
Dew Point 65 °F    
Average Humidity 74    
Maximum Humidity 99    
Minimum Humidity 54    
Precipitation  
Precipitation 0.00 in - - ()
Sea Level Pressure  
Sea Level Pressure 30.06 in    
Wind  
Wind Speed 3 mph ()    
Max Wind Speed 14 mph    
Max Gust Speed 20 mph    
Visibility 9.8 miles    
Events      
Averages and records for this station are not official NWS values.
T = Trace of Precipitation, MM = Missing Value Source: Averaged Metar Reports

Daily Weather History Graph

Daily Weather History Graph

Search for Another Location

Airport or City:

Astronomy

Oct. 03, 2019 Rise Set
Actual Time 6:53 AM CDT 6:37 PM CDT
Civil Twilight 6:27 AM CDT 7:03 PM CDT
Nautical Twilight 5:57 AM CDT 7:33 PM CDT
Astronomical Twilight 5:27 AM CDT 8:03 PM CDT
Moon 12:18 PM CDT (10/3) 10:23 PM CDT (10/3)
Length of Visible Light 12h 35m
Length of Day
11h 43m
Waxing Crescent, 30% of the Moon is Illuminated
Oct 3
Waxing Crescent
Oct 5
First Quarter
Oct 13
Full
Oct 21
Last Quarter
Oct 27
New

Hourly Weather History & Observations

Time (CDT) Temp. Heat Index Dew Point Humidity Pressure Visibility Wind Dir Wind Speed Gust Speed Precip Events Conditions
12:15 AM 69.6 °F - 64.9 °F 85% 29.97 in 10.0 mi Calm Calm - N/A   Clear
12:35 AM 66.6 °F - 64.2 °F 92% 29.97 in 10.0 mi Calm Calm - N/A   Clear
12:55 AM 67.1 °F - 64.0 °F 90% 29.97 in 10.0 mi Calm Calm - N/A   Clear
1:15 AM 66.4 °F - 63.9 °F 92% 29.97 in 10.0 mi Calm Calm - N/A   Clear
1:35 AM 66.6 °F - 63.5 °F 90% 29.98 in 10.0 mi Calm Calm - N/A   Clear
1:55 AM 66.6 °F - 62.8 °F 88% 29.99 in 10.0 mi Calm Calm - N/A   Clear
2:15 AM 65.3 °F - 63.0 °F 92% 29.99 in 10.0 mi Calm Calm - N/A   Clear
2:35 AM 65.3 °F - 62.1 °F 89% 29.99 in 10.0 mi Calm Calm - N/A   Clear
2:55 AM 65.3 °F - 63.0 °F 92% 29.99 in 10.0 mi Calm Calm - N/A   Clear
3:15 AM 65.1 °F - 62.8 °F 92% 30.00 in 10.0 mi Calm Calm - N/A   Clear
3:35 AM 64.8 °F - 63.3 °F 95% 30.00 in 10.0 mi Calm Calm - N/A   Clear
3:55 AM 64.6 °F - 63.9 °F 98% 30.00 in 10.0 mi Calm Calm - N/A   Clear
4:15 AM 64.6 °F - 63.5 °F 96% 30.00 in 10.0 mi Calm Calm - N/A   Clear
4:35 AM 64.2 °F - 63.5 °F 98% 30.01 in 10.0 mi Calm Calm - N/A   Clear
4:55 AM 63.7 °F - 61.9 °F 94% 30.01 in 10.0 mi Calm Calm - N/A   Clear
5:15 AM 64.4 °F - 62.8 °F 94% 30.01 in 10.0 mi Calm Calm - N/A   Clear
5:35 AM 64.8 °F - 63.3 °F 95% 30.01 in 10.0 mi Calm Calm - N/A   Clear
5:55 AM 64.0 °F - 63.0 °F 96% 30.02 in 10.0 mi SE 3.5 mph - N/A   Clear
6:15 AM 64.2 °F - 63.1 °F 96% 30.02 in 10.0 mi Calm Calm - N/A   Clear
6:35 AM 63.5 °F - 63.0 °F 98% 30.03 in 10.0 mi Calm Calm - N/A   Clear
6:55 AM 64.4 °F - 64.0 °F 99% 30.03 in 7.0 mi Calm Calm - N/A   Clear
7:15 AM 65.1 °F - 64.0 °F 96% 30.04 in 10.0 mi Calm Calm - N/A   Clear
7:35 AM 65.5 °F - 64.9 °F 98% 30.05 in 10.0 mi Calm Calm - N/A   Clear
7:55 AM 68.2 °F - 66.9 °F 96% 30.05 in 7.0 mi Calm Calm - N/A   Clear
8:15 AM 71.4 °F - 67.5 °F 87% 30.06 in 10.0 mi Calm Calm - N/A   Clear
8:35 AM 73.2 °F - 67.5 °F 82% 30.05 in 10.0 mi West 5.8 mph - N/A   Clear
8:55 AM 75.0 °F - 67.5 °F 77% 30.06 in 10.0 mi WSW 4.6 mph - N/A   Clear
9:15 AM 77.0 °F - 67.3 °F 72% 30.07 in 10.0 mi WSW 4.6 mph - N/A   Clear
9:35 AM 77.7 °F - 67.1 °F 70% 30.07 in 10.0 mi West 5.8 mph - N/A   Clear
9:55 AM 79.3 °F - 67.3 °F 66% 30.07 in 10.0 mi WSW 5.8 mph - N/A   Clear
10:15 AM 80.1 °F 82.3 °F 67.1 °F 64% 30.08 in 10.0 mi West 5.8 mph - N/A   Clear
10:35 AM 81.7 °F 84.5 °F 68.0 °F 63% 30.07 in 10.0 mi West 6.9 mph - N/A   Clear
10:55 AM 82.4 °F 85.6 °F 68.5 °F 63% 30.07 in 10.0 mi Calm Calm - N/A   Clear
11:15 AM 84.2 °F 88.1 °F 69.6 °F 61% 30.07 in 10.0 mi WNW 4.6 mph - N/A   Clear
11:35 AM 85.3 °F 89.8 °F 70.2 °F 60% 30.07 in 10.0 mi NW 8.1 mph - N/A   Clear
11:55 AM 85.5 °F 90.1 °F 70.2 °F 60% 30.07 in 10.0 mi NNW 6.9 mph - N/A   Clear
12:15 PM 86.4 °F 91.8 °F 70.9 °F 60% 30.07 in 7.0 mi NNW 10.4 mph - N/A   Clear
12:35 PM 86.9 °F 92.1 °F 70.7 °F 58% 30.07 in 7.0 mi NNW 11.5 mph 16.1 mph N/A   Scattered Clouds
12:55 PM 87.1 °F 92.4 °F 70.7 °F 58% 30.07 in 10.0 mi West 6.9 mph - N/A   Scattered Clouds
1:15 PM 86.0 °F 90.7 °F 70.2 °F 59% 30.07 in 10.0 mi NNW 6.9 mph - N/A   Clear
1:35 PM 87.4 °F 92.7 °F 70.7 °F 57% 30.06 in 10.0 mi North 6.9 mph - N/A   Scattered Clouds
1:55 PM 88.2 °F 93.7 °F 70.9 °F 56% 30.06 in 10.0 mi WNW 9.2 mph - N/A   Scattered Clouds
2:15 PM 88.5 °F 94.4 °F 70.9 °F 56% 30.06 in 10.0 mi NW 11.5 mph - N/A   Scattered Clouds
2:55 PM 87.8 °F 92.6 °F 70.0 °F 55% 30.06 in 10.0 mi NNW 11.5 mph - N/A   Clear
3:15 PM 88.0 °F 92.9 °F 70.0 °F 55% 30.06 in 10.0 mi NNW 9.2 mph - N/A   Clear
3:35 PM 87.3 °F 91.6 °F 69.3 °F 55% 30.06 in 10.0 mi NW 9.2 mph - N/A   Clear
3:55 PM 87.4 °F 91.5 °F 69.1 °F 54% 30.05 in 10.0 mi North 11.5 mph - N/A   Clear
4:15 PM 86.7 °F 90.6 °F 68.5 °F 55% 30.06 in 10.0 mi NNW 13.8 mph - N/A   Clear
4:35 PM 85.6 °F 88.8 °F 68.0 °F 55% 30.06 in 10.0 mi NNW 10.4 mph - N/A   Clear
4:55 PM 84.2 °F 87.1 °F 67.3 °F 57% 30.06 in 10.0 mi NNW 12.7 mph - N/A   Clear
5:15 PM 82.9 °F 85.4 °F 66.6 °F 58% 30.07 in 10.0 mi NNW 13.8 mph - N/A   Clear
5:35 PM 81.9 °F 83.9 °F 65.7 °F 58% 30.07 in 10.0 mi NNW 11.5 mph 18.4 mph N/A   Clear
5:55 PM 80.8 °F 82.8 °F 65.8 °F 60% 30.07 in 10.0 mi NNW 9.2 mph - N/A   Clear
6:15 PM 79.5 °F - 66.0 °F 63% 30.08 in 10.0 mi NNW 10.4 mph - N/A   Clear
6:35 PM 78.1 °F - 65.7 °F 65% 30.08 in 10.0 mi NNW 10.4 mph - N/A   Clear
6:55 PM 77.0 °F - 64.9 °F 66% 30.09 in 10.0 mi North 10.4 mph - N/A   Clear
7:15 PM 76.6 °F - 63.5 °F 64% 30.09 in 10.0 mi North 11.5 mph - N/A   Clear
7:35 PM 75.6 °F - 61.9 °F 62% 30.10 in 10.0 mi North 9.2 mph - N/A   Clear
7:55 PM 74.7 °F - 60.8 °F 62% 30.11 in 10.0 mi North 9.2 mph - N/A   Clear
8:15 PM 73.8 °F - 59.0 °F 60% 30.12 in 10.0 mi North 12.7 mph 19.6 mph N/A   Clear
8:35 PM 72.5 °F - 58.3 °F 61% 30.13 in 10.0 mi North 10.4 mph 17.3 mph N/A   Clear
8:55 PM 71.1 °F - 57.7 °F 63% 30.14 in 10.0 mi North 12.7 mph 18.4 mph N/A   Clear
9:15 PM 69.4 °F - 56.5 °F 63% 30.15 in 10.0 mi North 12.7 mph 19.6 mph N/A   Clear
9:35 PM 68.2 °F - 56.5 °F 66% 30.16 in 10.0 mi North 8.1 mph - N/A   Clear
10:15 PM 66.4 °F - 55.4 °F 68% 30.18 in 10.0 mi North 11.5 mph 16.1 mph N/A   Clear
10:35 PM 65.8 °F - 55.0 °F 68% 30.18 in 10.0 mi North 8.1 mph - N/A   Clear
10:55 PM 65.3 °F - 55.0 °F 69% 30.19 in 10.0 mi Calm Calm - N/A   Clear
11:15 PM 64.4 °F - 54.5 °F 70% 30.20 in 10.0 mi North 6.9 mph - N/A   Clear
11:35 PM 63.9 °F - 54.9 °F 72% 30.20 in 10.0 mi North 6.9 mph - N/A   Clear
11:55 PM 63.5 °F - 54.5 °F 72% 30.20 in 10.0 mi North 6.9 mph - N/A   Clear